Regional Weather Roundup
Issued by NWS

Home | Current Version | Previous Version | Text Only | Print | Product List | Glossary Off
Versions: 1 2 3 4 5 6 7 8 9 10 11 12 13 14 15 16 17 18 19 20 21 22 23 24 25 26 27 28 29 30 31 32 33 34 35 36 37 38 39 40 41 42 43 44 45 46 47 48 49 50

000
ASUS43 KIND 300209
RWRIN

WEATHER ROUNDUP FOR INDIANA
NATIONAL WEATHER SERVICE INDIANAPOLIS IN
1000 PM EDT FRI AUG 29 2014

NOTE: "FAIR" INDICATES FEW OR NO CLOUDS BELOW 12,000 FEET WITH NO
SIGNIFICANT WEATHER AND/OR OBSTRUCTIONS TO VISIBILITY.

* - STATION DOES NOT REPORT WEATHER SUCH AS PRECIPITATION OR FOG.

+ - STATION NOT QUALITY CONTROLLED BY THE NATIONAL WEATHER SERVICE.
    USE DATA WITH CAUTION...ESPECIALLY DEWPOINT AND RELATIVE
    HUMIDITY OBSERVATIONS.

INZ001>003-010>013-019-020-300300-
NORTHWEST INDIANA

CITY           SKY/WX    TMP DP  RH WIND       PRES   REMARKS
GARY /AIRPORT/ MOCLDY    73  70  88 SE7       29.91S
KNOX *+        CLOUDY    74  69  82 S21G33    29.98R
LA PORTE +     TSTM      73  71  93 W13       29.96R
MICHIGAN CITY+ HVY RAIN  73  72  94 SW21G30   29.96R
MONTICELLO +   CLOUDY    70  68  93 CALM      29.94F
RENSSELAER +   MOCLDY    72  70  94 E5        29.95R
VALPARAISO     CLOUDY    71  68  90 S9        29.95R

$$

LMZ046-743>745-300300-
SOUTHERN LAKE MICHIGAN

STATION/POSITION TIME  TEMP WIND        PRES
                       AIR  DIR/SP/G
                 (UTC) (F)  (DEG/KT/KT) (MB)
MICHIGAN CITY    0200   76  140/ 11/ 16   N/A

$$

INZ004-005-014>016-021>024-300300-
NORTH CENTRAL INDIANA

CITY           SKY/WX    TMP DP  RH WIND       PRES   REMARKS
GOSHEN         MOCLDY    76  69  79 SE8       29.98R
LOGANSPORT +   CLOUDY    77  68  73 S5        29.97R
PERU/GRISSOM   MOCLDY    77  74  92 SE9       29.97R
ROCHESTER +    CLOUDY    79  72  78 SE8       29.97R
SOUTH BEND     CLOUDY    77  70  79 SE10      29.96R
WARSAW +       MOCLDY    73  68  83 SE7       29.99R

$$

INZ006>009-017-018-025>027-300300-
NORTHEAST INDIANA

CITY           SKY/WX    TMP DP  RH WIND       PRES   REMARKS
ANGOLA *+      CLEAR     75  66  73 SE6       30.00S
AUBURN +       PTCLDY    73  64  73 E3        30.01R
FORT WAYNE     MOCLDY    74  67  78 SE9       30.00R
HUNTINGTON +   PTCLDY    75  68  78 SE8       29.99R

$$

INZ028-029-035-036-043>045-051>053-300300-
WEST CENTRAL INDIANA

CITY           SKY/WX    TMP DP  RH WIND       PRES   REMARKS
GREENCASTLE +  PTCLDY    72  70  94 CALM      29.97S FOG
LAFAYETTE      MOCLDY    71  69  93 E6        29.94R
TERRE HAUTE    PTCLDY    74  70  87 S5        29.95R

$$

INZ030>032-037>040-046>048-054>057-064-065-300300-
CENTRAL INDIANA

CITY           SKY/WX    TMP DP  RH WIND       PRES   REMARKS
CP ATTERBURY + MOCLDY    77  66  69 S6        29.99R
FRANKFORT +    MOCLDY   N/A N/A N/A CALM      29.98R
INDIANAPOLIS   NOT AVBL
-EAGLE CREEK   PTCLDY    80  67  64 VRB5      29.97R
KOKOMO *+      CLOUDY    75  70  83 SE7       29.98R
MARION +       MOCLDY    74  67  78 SE7       30.00R
MT COMFORT *+  PTCLDY    75  75 100 S3        29.99S
SHELBYVILLE    PTCLDY    78  71  79 SE7       29.98S
ZIONSVILLE +   PTCLDY    77  69  77 SE3       29.99R

$$

INZ033-034-041-042-049-050-058-059-300300-
EAST CENTRAL INDIANA

CITY           SKY/WX    TMP DP  RH WIND       PRES   REMARKS
MUNCIE         CLEAR     78  66  66 SE9       29.99F

$$

INZ060-061-067>069-081>083-085>088-300300-
SOUTHWEST INDIANA

CITY           SKY/WX    TMP DP  RH WIND       PRES   REMARKS
EVANSVILLE     CLEAR     81  67  62 SE6       29.97R
WASHINGTON +   CLEAR     75  71  87 S5        29.95S

$$

INZ062-063-066-070>080-084-089>092-300300-
SOUTH CENTRAL AND SOUTHEAST INDIANA

CITY           SKY/WX    TMP DP  RH WIND       PRES   REMARKS
BEDFORD +      CLEAR     77  63  61 SE5       29.99
BLOOMINGTON    PTCLDY    75  68  78 S5        29.98R
NORTH VERNON + MOCLDY    79  64  61 S3        30.01

$$



USA.gov is the U.S. government's official web portal to all federal, state and local government web resources and services.